Regional Weather Roundup
Issued by NWS

Home | Current Version | Previous Version | Text Only | Print | Product List | Glossary Off
Versions: 1 2 3 4 5 6 7 8 9 10 11 12 13 14 15 16 17 18 19 20 21 22 23 24 25 26 27 28 29 30 31 32 33 34 35 36 37 38 39 40 41 42 43 44 45 46 47 48 49 50

000
ASUS43 KLOT 292258
RWRIL

ILLINOIS REGIONAL WEATHER ROUNDUP
NATIONAL WEATHER SERVICE CHICAGO/ROMEOVILLE IL
600 PM CDT TUE JUL 29 2014

NOTE: "FAIR" INDICATES FEW OR NO CLOUDS BELOW 12,000 FEET WITH NO
SIGNIFICANT WEATHER AND/OR OBSTRUCTIONS TO VISIBILITY.

* THESE STATIONS ARE NOT UNDER NWS QUALITY CONTROL. THEY ALSO MAY NOT
  REPORT WEATHER SUCH AS PRECIPITATION OR FOG.

ILZ001-002-007-009-015-016-024-300000-
NORTHWEST ILLINOIS

CITY           SKY/WX    TMP DP  RH WIND       PRES   REMARKS
MOLINE         SUNNY     78  57  48 W9        30.04F
$$

ILZ003-004-008-010-011-017-018-300000-
NORTH CENTRAL ILLINOIS

CITY           SKY/WX    TMP DP  RH WIND       PRES   REMARKS
ROCKFORD       NOT AVBL
$$

ILZ005-006-012>014-019>023-300000-
NORTHEAST ILLINOIS

CITY           SKY/WX    TMP DP  RH WIND       PRES   REMARKS
CHICAGO-OHARE  MOSUNNY   77  55  46 W14       29.98F
CHICAGO-MIDWAY MOSUNNY   77  57  50 W14G20    29.99F
AURORA         MOSUNNY   72  59  63 W8        30.02F
WAUKEGAN       SUNNY     69  59  70 SE7       29.98F
DUPAGE AIRPORT MOSUNNY   74  59  59 W10       30.00F
WHEELING       MOSUNNY   80  52  37 NW10      29.99F HX  80
NORTHERLY ISL    N/A     67  60  78 SE5         N/A
$$

LMZ740>746-300000-
SOUTHERN LAKE MICHIGAN

STATION/POSITION SKY/WX   TEMP    WIND        PRES    VSBY  WAVE
                          AIR SEA DIR/SP/G                  HT/PER
                          (F)     (DEG/KT/KT) (MB)    (MI)  (FT/S)
SOUTHERN BUOY              63 62  180/  8/  8 1015.8F         1
WAUKEGAN HARBOR            68     170/  8/  9   N/A
HARRISON CRIB              66     120/  8/  9   N/A
BURNHAM HARBOR             68     120/  5/  7   N/A
CALUMET HARBOR             68     100/  4/  5 1014.7F
MICHIGAN CITY              67      40/  4/  4   N/A
MICHIGAN CITY 6N           68 69  100/  2/  4   N/A           1
ST. JOSEPH                 67 68  190/  2/  4   N/A           1/ 3
$$

ILZ025>027-034>036-040-047-049-050-058-095>099-300000-
WEST-CENTRAL ILLINOIS

CITY           SKY/WX    TMP DP  RH WIND       PRES   REMARKS
QUINCY         SUNNY     77  55  46 NW8       30.09F
$$

ILZ028>032-037-038-041>044-048-051>054-059>061-300000-
CENTRAL ILLINOIS

CITY           SKY/WX    TMP DP  RH WIND       PRES   REMARKS
PEORIA         NOT AVBL
SPRINGFIELD    SUNNY     78  58  49 W7        30.08F
TAYLORVILLE    NOT AVBL
$$

ILZ033-039-045-046-055>057-062-063-300000-
EAST-CENTRAL ILLINOIS

CITY           SKY/WX    TMP DP  RH WIND       PRES   REMARKS
CHAMPAIGN      MOSUNNY   75  58  55 W13       30.06F
MATTOON        SUNNY     75  56  51 W10       30.06F
$$

ILZ079-100>102-300000-
SOUTHWEST ILLINOIS

CITY           SKY/WX    TMP DP  RH WIND       PRES   REMARKS
CAHOKIA*       SUNNY     81  53  37 NW7       30.08F HX  80
$$

ILZ064>066-069>071-074>076-080>082-084>086-088>090-092>094-300000-
SOUTH-CENTRAL ILLINOIS

CITY           SKY/WX    TMP DP  RH WIND       PRES   REMARKS
CARBONDALE     SUNNY     79  52  38 NW5       30.10F
$$

ILZ067-068-072-073-078-083-087-091-300000-
SOUTHEAST ILLINOIS

CITY           SKY/WX    TMP DP  RH WIND       PRES   REMARKS
$$

ABBREVIATIONS USED IN REMARKS
   TC - TEMPERATURE IN CELSIUS
  WCI - WIND CHILL INDEX
   HX - HEAT INDEX
  VSB - VISIBILITY
$$




USA.gov is the U.S. government's official web portal to all federal, state and local government web resources and services.